Bilbao, Spain

10:10 PM CET en Diciembre 11, 2017 (GMT +0100)
Bilbao

Tiempo Historia de LEBB - Diciembre, 2017

Change the Weather History Date:

Jueves, Diciembre 7, 2017

  Actual Average Record
Temperature  
Temperatura media 48 ° F -  
Temperatura máxima 59 ° F 54 ° F 77 ° F (2000)
Temperatura mínima 37 ° F 41 ° F 28 ° F (1999)
Degree Days  
Grados día de calefacción 17    
Moisture  
Punto de rocío 36 ° F    
Average Humidity 58    
Maximum Humidity 81    
Minimum Humidity 28    
Precipitación  
Precipitación 0.01 pul - - ()
Presión al nivel del mar  
Presión al nivel del mar 30.35 pul    
Viento  
Velocidad del viento 2 mph ()    
Velocidad máxima del viento 8 mph    
Max Gust Speed -    
Visibilidad 7.4 Millas    
Eventos Lluvia    
Averages and records for this station are not official NWS values.
T = Trace of Precipitation, MM = Missing Value Source: Averaged Metar Reports

Daily Weather History Graph

Daily Weather History Graph

Search for Another Location

Airport or City:

Trip Planner

Search our weather history database for the weather conditions in past years. The results will help you decide how hot, cold, wet, or windy it might be!

Date:

Astronomía

Dec. 07, 2017 Salida Puesta
Hora real 8:30 AM CET 5:35 PM CET
Crepúsculo civil 7:58 AM CET 6:08 PM CET
Crepúsculo náutico 7:22 AM CET 6:44 PM CET
Crepúsculo astronómico 6:47 AM CET 7:18 PM CET
Luna 10:09 PM CET (12/7) 11:56 AM CET (12/7)
Horas de luz 10h 10m
Horas de luz
9h 05m
Gibosa menguante, 80% of the Moon is Illuminated
Dic 7
Gibosa menguante
Dic 10
Cuarto menguante
Dic 18
Nueva
Dic 26
Cuarto creciente
Ene 2
Luna llena

Hourly Weather History & Observations

Hora (CET) Temp. Vientos helados Punto de rocío Humedad Presión Visibilidad Wind Dir Velocidad del viento Velocidad de ráfagas Precip Eventos Condiciones
12:00 AM 38 ° F - 34 ° F 80% 30.45 pul - Sin viento Sin viento - -  
12:00 AM 39.2 ° F - 33.8 ° F 81% 30.42 pul - Sin viento Sin viento - N/A   Despejado
12:30 AM 39.2 ° F - 33.8 ° F 81% 30.42 pul - Variable 2.3 mph - N/A   Despejado
1:00 AM 38 ° F - 34 ° F 79% 30.45 pul - Sin viento Sin viento - -  
1:00 AM 39.2 ° F - 33.8 ° F 81% 30.42 pul - Sin viento Sin viento - N/A   Despejado
1:30 AM 41.0 ° F - 33.8 ° F 76% 30.42 pul - Variable 1.2 mph - N/A   Despejado
2:00 AM 39 ° F - 34 ° F 77% 30.42 pul - Sin viento Sin viento - -  
2:00 AM 39.2 ° F - 33.8 ° F 81% 30.39 pul - Sin viento Sin viento - N/A   Despejado
2:30 AM 41.0 ° F - 33.8 ° F 76% 30.39 pul - Sin viento Sin viento - N/A   Despejado
3:00 AM 41 ° F - 35 ° F 71% 30.42 pul - Oeste 3.5 mph - -  
3:00 AM 42.8 ° F - 33.8 ° F 70% 30.39 pul - Variable 2.3 mph - N/A   Despejado
3:30 AM 41.0 ° F - 33.8 ° F 76% 30.39 pul - Variable 2.3 mph - N/A   Despejado
4:00 AM 41 ° F - 35 ° F 73% 30.40 pul - SE 2.3 mph - -  
4:00 AM 41.0 ° F - 35.6 ° F 81% 30.39 pul - Variable 1.2 mph - N/A   Despejado
4:30 AM 44.6 ° F - 33.8 ° F 66% 30.36 pul - Variable 1.2 mph - N/A   Despejado
5:00 AM 42.8 ° F - 33.8 ° F 70% 30.36 pul - Sin viento Sin viento - N/A   Despejado
5:30 AM 44.6 ° F - 33.8 ° F 66% 30.36 pul - Sin viento Sin viento - N/A   Despejado
6:00 AM 45 ° F - 33 ° F 52% 30.38 pul - Sin viento Sin viento - -  
6:00 AM 44.6 ° F - 33.8 ° F 66% 30.36 pul - Sin viento Sin viento - N/A   Despejado
6:30 AM 44.6 ° F - 33.8 ° F 66% 30.36 pul - Sin viento Sin viento - N/A   Despejado
7:00 AM 44 ° F - 33 ° F 55% 30.39 pul 9 mi Oeste 2.3 mph - -   Nublado
7:00 AM 46.4 ° F - 32.0 ° F 57% 30.36 pul - Sin viento Sin viento - N/A   Despejado
7:30 AM 42.8 ° F - 33.8 ° F 70% 30.39 pul - SSE 2.3 mph - N/A   Despejado
8:00 AM 45 ° F - 33 ° F 51% 30.39 pul - Sin viento Sin viento - -  
8:00 AM 44.6 ° F - 35.6 ° F 71% 30.36 pul - SSE 1.2 mph - N/A   Despejado
8:30 AM 44.6 ° F - 33.8 ° F 66% 30.39 pul - Sin viento Sin viento - N/A   Despejado
9:00 AM 45 ° F - 35 ° F 57% 30.38 pul - Este 6.9 mph - -  
9:00 AM 42.8 ° F 39.3 ° F 33.8 ° F 70% 30.36 pul - ESE 5.8 mph - N/A   Despejado
9:30 AM 46.4 ° F - 33.8 ° F 62% 30.39 pul - Variable 1.2 mph - N/A   Despejado
10:00 AM 49 ° F - 32 ° F 40% 30.40 pul 12 mi ESE 5.8 mph - -   Muy nublado
10:00 AM 50.0 ° F - 35.6 ° F 58% 30.39 pul - SE 3.5 mph - N/A   Despejado
10:30 AM 50.0 ° F - 33.8 ° F 54% 30.39 pul - Variable 2.3 mph - N/A   Despejado
11:00 AM 52 ° F - 36 ° F 42% 30.40 pul - ESE 6.9 mph - -  
11:00 AM 51.8 ° F - 35.6 ° F 54% 30.39 pul - ESE 4.6 mph - N/A   Despejado
11:30 AM 53.6 ° F - 33.8 ° F 47% 30.39 pul - SE 3.5 mph - N/A   Despejado
12:00 PM 55 ° F - 33 ° F 31% 30.38 pul - Sur 3.5 mph - -  
12:00 PM 55.4 ° F - 35.6 ° F 47% 30.36 pul - Variable 1.2 mph - N/A   Despejado
12:30 PM 55.4 ° F - 35.6 ° F 47% 30.36 pul 6.2 mi Variable 2.3 mph - N/A   Muy nublado
1:00 PM 58 ° F - 36 ° F 31% 30.34 pul 16 mi SE 1.2 mph - -   Parcialmente nublado
1:00 PM 57.2 ° F - 35.6 ° F 44% 30.33 pul 6.2 mi Variable 2.3 mph - N/A   Nubes dispersas
1:30 PM 59.0 ° F - 35.6 ° F 42% 30.33 pul 6.2 mi Variable 2.3 mph - N/A   Muy nublado
2:00 PM 58 ° F - 34 ° F 28% 30.33 pul - Sur 3.5 mph - -  
2:00 PM 57.2 ° F - 35.6 ° F 44% 30.33 pul 6.2 mi Variable 2.3 mph - N/A   Nubes dispersas
2:30 PM 57.2 ° F - 37.4 ° F 48% 30.30 pul 6.2 mi Variable 1.2 mph - N/A   Muy nublado
3:00 PM 57 ° F - 37 ° F 35% 30.32 pul - Sur 2.3 mph - -  
3:00 PM 55.4 ° F - 37.4 ° F 51% 30.30 pul 6.2 mi Variable 2.3 mph - N/A   Nublado
3:30 PM 53.6 ° F - 42.8 ° F 67% 30.30 pul 6.2 mi SSO 3.5 mph - N/A   Muy nublado
4:00 PM 55 ° F - 40 ° F 45% 30.32 pul 16 mi SSO 2.3 mph - -   Muy nublado
4:00 PM 53.6 ° F - 41.0 ° F 62% 30.30 pul 6.2 mi Variable 2.3 mph - N/A   Muy nublado
4:30 PM 55.4 ° F - 39.2 ° F 54% 30.30 pul 6.2 mi Sur 4.6 mph - N/A   Muy nublado
5:00 PM 55.4 ° F - 37.4 ° F 51% 30.30 pul 6.2 mi Variable 3.5 mph - N/A   Nubes dispersas
5:30 PM 55.4 ° F - 37.4 ° F 51% 30.30 pul 6.2 mi Variable 1.2 mph - N/A   Nubes dispersas
6:00 PM 55.4 ° F - 35.6 ° F 47% 30.30 pul 6.2 mi Variable 4.6 mph - N/A   Parcialmente nublado
6:30 PM 51.8 ° F - 35.6 ° F 54% 30.30 pul 6.2 mi Variable 1.2 mph - N/A   Parcialmente nublado
7:00 PM 54 ° F - 36 ° F 38% 30.31 pul 9 mi SSO 2.3 mph - -   Nubes dispersas
7:00 PM 51.8 ° F - 37.4 ° F 58% 30.30 pul 6.2 mi Variable 1.2 mph - N/A   Parcialmente nublado
7:30 PM 53.6 ° F - 37.4 ° F 54% 30.27 pul 6.2 mi Variable 2.3 mph - N/A   Parcialmente nublado
8:00 PM 55 ° F - 37 ° F 38% 30.30 pul - SO 2.3 mph - -  
8:00 PM 53.6 ° F - 37.4 ° F 54% 30.27 pul 6.2 mi Variable 2.3 mph - N/A   Nubes dispersas
8:30 PM 53.6 ° F - 37.4 ° F 54% 30.27 pul 6.2 mi Variable 2.3 mph - N/A   Nubes dispersas
9:00 PM 55.4 ° F - 39.2 ° F 54% 30.30 pul 6.2 mi OSO 3.5 mph - N/A   Nubes dispersas
9:30 PM 53.6 ° F - 41.0 ° F 62% 30.30 pul 6.2 mi Variable 1.2 mph - N/A Lluvia Lluvia débil
10:00 PM 54 ° F - 41 ° F 50% 30.32 pul 9 mi SSO 5.8 mph - - Lluvia Lluvia débil
10:00 PM 53.6 ° F - 41.0 ° F 62% 30.30 pul 6.2 mi SSO 8.1 mph - N/A   Nubes dispersas
10:30 PM 53.6 ° F - 41.0 ° F 62% 30.30 pul 6.2 mi Variable 2.3 mph - N/A   Nubes dispersas
11:00 PM 54 ° F - 43 ° F 55% 30.31 pul - SO 2.3 mph - -  
11:00 PM 53.6 ° F - 42.8 ° F 67% 30.30 pul 6.2 mi Variable 1.2 mph - N/A   Nubes dispersas
11:30 PM 53.6 ° F - 42.8 ° F 67% 30.30 pul 6.2 mi Variable 2.3 mph - N/A   Nubes dispersas